Time_in_sec,Mx,My,Mz
1314274685.85643697,-0.34922931,0.47497264,-0.81842142
1314274685.90429378,-0.34879285,0.47430837,-0.81573296
1314274685.95643783,-0.34808147,0.47648415,-0.81943059
1314274686.00449681,-0.34989607,0.47535574,-0.81819654
1314274686.05653906,-0.34904638,0.47609544,-0.81748879
1314274686.10441732,-0.35097611,0.47332752,-0.81611621
1314274686.15650010,-0.34672019,0.47719932,-0.81696534
1314274686.20757675,-0.34942874,0.47380409,-0.81510085
1314274686.25655150,-0.34733397,0.47495225,-0.81844598
1314274686.30415249,-0.34798476,0.47533232,-0.81795424
1314274686.35649037,-0.34875268,0.47432512,-0.81732595
1314274686.40444016,-0.34908468,0.47481903,-0.81601924
1314274686.45565510,-0.34819362,0.47446632,-0.81928903
1314274686.50457978,-0.34884477,0.47381461,-0.81666273
1314274686.55444670,-0.34846255,0.47809637,-0.81653982
1314274686.60755944,-0.34933275,0.47280276,-0.81588554
1314274686.65644574,-0.34811169,0.47621366,-0.81770217
1314274686.70405030,-0.34960461,0.47381330,-0.81577563
1314274686.75651717,-0.34847575,0.47469884,-0.81717998
1314274686.80838418,-0.34756300,0.47456941,-0.81779152
1314274686.85649538,-0.34718907,0.47482306,-0.81830376
1314274686.90857482,-0.34951052,0.47407159,-0.81643683
1314274686.95651364,-0.34723186,0.47621644,-0.81884831
1314274687.00464892,-0.34732628,0.47492635,-0.81605256
1314274687.05646920,-0.34987792,0.47411743,-0.82031322
1314274687.10386014,-0.34928551,0.47395152,-0.81722069
1314274687.15586638,-0.34792000,0.47418657,-0.81701148
1314274687.20845509,-0.34966251,0.47306880,-0.81683683
1314274687.25644851,-0.34860858,0.47633687,-0.81693387
1314274687.30750966,-0.34967721,0.47297013,-0.81936270
1314274687.35646152,-0.34855366,0.47345445,-0.81863743
1314274687.40745950,-0.34973124,0.47471902,-0.81778359
1314274687.45658207,-0.34811777,0.47495553,-0.81795901
1314274687.50756073,-0.34825271,0.47483099,-0.81796581
1314274687.55556917,-0.34848931,0.47648886,-0.81945390
1314274687.60772228,-0.34772700,0.47306520,-0.81845438
1314274687.65648961,-0.34680614,0.47494906,-0.81868166
1314274687.70859861,-0.35045412,0.47508842,-0.81623244
1314274687.75651264,-0.34778830,0.47687918,-0.82127780
1314274687.80760789,-0.34973222,0.47484514,-0.81778455
1314274687.85644627,-0.34883347,0.47446650,-0.81866091
1314274687.90848923,-0.34984225,0.47458988,-0.81739014
1314274687.95654631,-0.34766173,0.47496608,-0.81939530
1314274688.00846457,-0.34888133,0.47447568,-0.81946135
1314274688.05642605,-0.35017064,0.47576159,-0.82047504
1314274688.10859728,-0.34857583,0.47418982,-0.81665015
1314274688.15643907,-0.34775284,0.47432941,-0.81873113
1314274688.21108580,-0.34867859,0.47408354,-0.81838340
1314274688.25656438,-0.34939018,0.47510487,-0.81883043
1314274688.29546690,-0.34923854,0.47507587,-0.81629580
1314274688.35552096,-0.34810385,0.47419730,-0.81781965
1314274688.40448570,-0.34920064,0.47532049,-0.81563079
1314274688.45545793,-0.34697717,0.47631809,-0.81684053
1314274688.50759864,-0.35012779,0.47537562,-0.81980509
1314274688.55643272,-0.34841719,0.47649950,-0.82051331
1314274688.61041570,-0.34925768,0.47243506,-0.81694198
1314274688.65561509,-0.34898722,0.47673818,-0.81868660
1314274688.70443916,-0.34892061,0.47332540,-0.81799275
1314274688.75571489,-0.34709302,0.47482911,-0.81896299
1314274688.80442548,-0.34737283,0.47584116,-0.81898654
1314274688.85925245,-0.34933707,0.47448951,-0.82028508
1314274688.90827227,-0.34813365,0.47596601,-0.81810039
1314274688.95644021,-0.34811783,0.47394812,-0.81808448
1314274689.00846004,-0.34902647,0.47558790,-0.81721807
1314274689.05641961,-0.34828648,0.47710413,-0.81825048
1314274689.10854173,-0.34804404,0.47368214,-0.81688190
1314274689.15549159,-0.34981111,0.47372687,-0.81924301
1314274689.20567060,-0.35140494,0.47295845,-0.81653678
1314274689.25637221,-0.34724492,0.47483373,-0.81923759
1314274689.30431199,-0.34790772,0.47471237,-0.81900865
1314274689.35651398,-0.34736443,0.47787887,-0.82086223
1314274689.40430140,-0.34780997,0.47444183,-0.81740588
1314274689.45650220,-0.34739783,0.47496447,-0.81951314
1314274689.50408173,-0.34901828,0.47460335,-0.81947011
1314274689.55559897,-0.34874329,0.47623670,-0.81920069
1314274689.60444951,-0.34835872,0.47507867,-0.81744200
1314274689.65649605,-0.34826559,0.47647050,-0.81797874
1314274689.70459318,-0.35043907,0.47221366,-0.81860298
1314274689.75667739,-0.34848866,0.47533095,-0.81731832
1314274689.80403566,-0.35060576,0.47511744,-0.81876701
1314274689.85647941,-0.34854558,0.47446033,-0.81837857
1314274689.90392447,-0.34924626,0.47510180,-0.81868923
1314274689.95647264,-0.34855053,0.47509092,-0.81838357
1314274690.00442171,-0.34767270,0.47534594,-0.81953168
1314274690.05659819,-0.34907535,0.47572318,-0.81801945
1314274690.10403514,-0.34947833,0.47408986,-0.81816328
1314274690.15646982,-0.34822908,0.47701612,-0.82183576
1314274690.20767999,-0.34718630,0.47542772,-0.81591535
1314274690.25580645,-0.34966710,0.47473118,-0.81897640
1314274690.29644990,-0.35005766,0.47563851,-0.82086653
1314274690.35562539,-0.34879357,0.47445887,-0.81799394
1314274690.40677929,-0.34957331,0.47496510,-0.81737757
1314274690.45577359,-0.34773675,0.47634119,-0.81821340
1314274690.50768542,-0.34849235,0.47585979,-0.81958234
1314274690.55650425,-0.34771287,0.47532919,-0.81793869
1314274690.60759687,-0.35024714,0.47421622,-0.81741053
1314274690.65645885,-0.34820053,0.47534916,-0.81929600
1314274690.70850539,-0.34839568,0.47470796,-0.81810600
1314274690.75576735,-0.34820542,0.47698715,-0.81917554
1314274690.80845523,-0.34920502,0.47599983,-0.82015580
1314274690.85663557,-0.34849632,0.47636425,-0.81958628
1314274690.90862107,-0.35014415,0.47333947,-0.81806278
1314274690.95650601,-0.34673652,0.47838467,-0.82162768
1314274691.00460815,-0.34874737,0.47472635,-0.81945556
1314274691.05648041,-0.34940615,0.47510794,-0.81909722
1314274691.10446548,-0.34857363,0.47295457,-0.81903368
1314274691.15552592,-0.34693205,0.47570425,-0.81842858
1314274691.20844555,-0.34731010,0.47394025,-0.81817120
1314274691.25658321,-0.34747452,0.47661620,-0.82059324
1314274691.30761313,-0.34909010,0.47461709,-0.82067072
1314274691.35646963,-0.34832463,0.47383732,-0.81929183
1314274691.40449905,-0.34962034,0.47283331,-0.81842792
1314274691.45642614,-0.34758660,0.47560579,-0.82032627
1314274691.49610209,-0.34889230,0.47485554,-0.81959772
1314274691.55646992,-0.34813526,0.47725004,-0.82023692
1314274691.60433030,-0.34954521,0.47347301,-0.81935889
1314274691.65765929,-0.34701914,0.47557056,-0.81763494
1314274691.71127987,-0.34891453,0.47458351,-0.81773591
1314274691.75644708,-0.34838027,0.47687021,-0.81984931
1314274691.80448580,-0.34854856,0.47483867,-0.81838155
1314274691.85646319,-0.34697562,0.47624075,-0.82135957
1314274691.90747952,-0.34853464,0.47408044,-0.81824219
1314274691.95546770,-0.34759861,0.47510436,-0.82058913
1314274692.00445080,-0.34752572,0.47597191,-0.81926209
1314274692.05622363,-0.34707895,0.47608569,-0.81857276
1314274692.10432911,-0.34840295,0.47455898,-0.81597841
1314274692.15669537,-0.34887421,0.47661507,-0.81907803
1314274692.21132541,-0.34815469,0.47458482,-0.81862307
1314274692.25645590,-0.34749493,0.47407711,-0.81898040
1314274692.30446339,-0.34878057,0.47483417,-0.81773013
1314274692.35545993,-0.34697685,0.47734991,-0.81897509
1314274692.40405059,-0.34773117,0.47455269,-0.81607288
1314274692.45556736,-0.34807354,0.47547522,-0.81942260
1314274692.50746202,-0.34818155,0.47597516,-0.81890076
1314274692.55644774,-0.34591827,0.47595772,-0.81956893
1314274692.60452318,-0.34891263,0.47332385,-0.81785935
1314274692.65643263,-0.34815666,0.47483703,-0.81862503
1314274692.70407557,-0.34783527,0.47354072,-0.81567252
1314274692.75747228,-0.34774283,0.47508305,-0.81847030
1314274692.80488896,-0.34871870,0.47507420,-0.81666493
1314274692.85648680,-0.34704104,0.47633031,-0.81790775
1314274692.90397286,-0.34691349,0.47429106,-0.81602424
1314274692.95645261,-0.34921926,0.47572628,-0.81816059
1314274693.00462317,-0.34870237,0.47610295,-0.81853265
1314274693.05644321,-0.34506893,0.47566563,-0.81672668
1314274693.10380578,-0.34869081,0.47456515,-0.81626076
1314274693.15663004,-0.34724709,0.47606900,-0.81685412
1314274693.20444965,-0.34849375,0.47394669,-0.81757420
1314274693.25671315,-0.34772289,0.47457555,-0.81819952
1314274693.30459428,-0.34860569,0.47495109,-0.81705636
1314274693.35645747,-0.34571648,0.47569171,-0.81849200
1314274693.40760088,-0.34881178,0.47468978,-0.81600273
1314274693.45648885,-0.34938511,0.47648913,-0.81857455
1314274693.50860381,-0.34909731,0.47547552,-0.81841767
1314274693.55659270,-0.34735614,0.47568762,-0.81645870
1314274693.60858154,-0.35072404,0.47483933,-0.81624597
1314274693.65567279,-0.34749973,0.47672251,-0.81873447
1314274693.70779514,-0.34890556,0.47445586,-0.81760150
1314274693.75646257,-0.34768179,0.47746402,-0.81715518
1314274693.80759287,-0.34839270,0.47432959,-0.81810302
1314274693.85644650,-0.34701023,0.47443551,-0.81762600
1314274693.90857053,-0.34889597,0.47317031,-0.81533158
1314274693.95665574,-0.34895933,0.47622913,-0.81828243
1314274694.00580859,-0.34961018,0.47560179,-0.81791615
1314274694.05651975,-0.34682831,0.47568443,-0.81669438
1314274694.10461903,-0.34892485,0.47380549,-0.81573671
1314274694.15645671,-0.34792954,0.47647956,-0.81915599
1314274694.20462966,-0.34893990,0.47267500,-0.81612802
1314274694.25644517,-0.34682640,0.47442478,-0.81681788
1314274694.30449033,-0.34828755,0.47622284,-0.81837696
1314274694.35550022,-0.34795758,0.47497377,-0.81981105
1314274694.40448856,-0.34727508,0.47557062,-0.81738371
1314274694.45554948,-0.34719592,0.47671327,-0.81818527
1314274694.50749350,-0.34951016,0.47510338,-0.81857139
1314274694.55647039,-0.34765694,0.47632593,-0.81687939
1314274694.60749674,-0.35033223,0.47383028,-0.81661493
1314274694.65646696,-0.34744492,0.47583053,-0.81792706
1314274694.70440316,-0.34761730,0.47228864,-0.81671423
1314274694.75623775,-0.34805852,0.47660571,-0.81903136
1314274694.80442524,-0.34789467,0.47609508,-0.81861943
1314274694.85548711,-0.34678814,0.47570118,-0.81828743
1314274694.90450072,-0.34774521,0.47329608,-0.81646317
1314274694.95645714,-0.34807116,0.47726220,-0.82142973
1314274695.00423408,-0.34933305,0.47499245,-0.82015562
1314274695.05644536,-0.34690911,0.47582582,-0.81802940
1314274695.10422039,-0.34971336,0.47345632,-0.81764024
1314274695.15648389,-0.34887132,0.47522932,-0.81920052
1314274695.20690155,-0.34774980,0.47495848,-0.81860268
1314274695.25613570,-0.34913120,0.47573388,-0.81895322
1314274695.30449820,-0.34822151,0.47497538,-0.81969321
1314274695.35654783,-0.34773242,0.47686851,-0.82034403
1314274695.41105652,-0.34851769,0.47395128,-0.81797439
1314274695.45614195,-0.34823337,0.47648877,-0.81970513
1314274695.50449038,-0.34780368,0.47471693,-0.81953448
1314274695.55551100,-0.34862229,0.47611207,-0.81945872
1314274695.60447335,-0.34859079,0.47406676,-0.81691599
1314274695.65682673,-0.34704477,0.47585174,-0.82029718
1314274695.70763898,-0.34829694,0.47431129,-0.81650221
1314274695.75647736,-0.34754360,0.47723460,-0.81940544
1314274695.80462289,-0.34926724,0.47472802,-0.81908643
1314274695.85552692,-0.34723192,0.47520903,-0.81897378
1314274695.90451670,-0.34829962,0.47471401,-0.81876522
1314274695.95598865,-0.34630421,0.47520265,-0.81931949
1314274696.00442553,-0.34722894,0.47483069,-0.81897080
1314274696.05785131,-0.34879419,0.47561678,-0.82012951
1314274696.10859346,-0.34941715,0.47448039,-0.81935906
1314274696.15648270,-0.34718969,0.47598097,-0.82043934
1314274696.20448542,-0.34855959,0.47421116,-0.81864339
1314274696.25644088,-0.34803832,0.47612256,-0.82102060
1314274696.30393696,-0.34607625,0.47470424,-0.82010037
1314274696.35561275,-0.34767058,0.47710854,-0.81927878
1314274696.40858388,-0.34924936,0.47346532,-0.81894314
1314274696.45660448,-0.34782222,0.47713754,-0.82181340
1314274696.50765252,-0.34855145,0.47622445,-0.81825912
1314274696.55570960,-0.34757227,0.47688675,-0.82219607
1314274696.60612512,-0.34796986,0.47444797,-0.81781387
1314274696.65644813,-0.34665388,0.47597623,-0.82054162
1314274696.70772004,-0.34807664,0.47383875,-0.81967652
1314274696.75549316,-0.34688261,0.47561777,-0.82214719
1314274696.80967021,-0.34920204,0.47562149,-0.82015282
1314274696.85547304,-0.34842828,0.47486457,-0.82090062
1314274696.90860057,-0.34882429,0.47335583,-0.82091200
1314274696.95644474,-0.34868029,0.47436017,-0.82064539
1314274697.00859737,-0.34825441,0.47510761,-0.82022780
1314274697.05645561,-0.34862110,0.47500291,-0.82184315
1314274697.10752797,-0.34779149,0.47423530,-0.82165712
1314274697.15658784,-0.34759134,0.47525334,-0.82271671
1314274697.20453739,-0.35008371,0.47388050,-0.82151961
1314274697.24853063,-0.34784424,0.47588247,-0.82233703
1314274697.30604005,-0.34918872,0.47702858,-0.82202357
1314274697.35644102,-0.34665713,0.47854429,-0.82481474
1314274697.40693974,-0.34801620,0.47437978,-0.82313329
1314274697.45644259,-0.34801409,0.47614238,-0.82288039
1314274697.50439548,-0.34836489,0.47502723,-0.82435441
1314274697.55644178,-0.34790617,0.47463503,-0.82352769
1314274697.60577583,-0.34975567,0.47389108,-0.82283026
1314274697.65647244,-0.34916857,0.47553805,-0.82413828
1314274697.70487857,-0.34887886,0.47326478,-0.82410485
1314274697.75643206,-0.34848076,0.47653610,-0.82384050
1314274697.80426717,-0.34734035,0.47588384,-0.82297295
1314274697.85644841,-0.34803605,0.47589472,-0.82327861
1314274697.90431476,-0.34787497,0.47477943,-0.82525510
1314274697.95548582,-0.34855670,0.47503948,-0.82529598
1314274698.00736237,-0.34758398,0.47640973,-0.82471889
1314274698.05647254,-0.34766287,0.47529146,-0.82617736
1314274698.10847306,-0.34808210,0.47363681,-0.82432795
1314274698.15648842,-0.34883615,0.47708336,-0.82745409
1314274698.20532584,-0.34945551,0.47441068,-0.82454509
1314274698.25720549,-0.34837386,0.47515488,-0.82448882
1314274698.30468750,-0.34913537,0.47543019,-0.82586372
1314274698.35648179,-0.34837449,0.47631279,-0.82662439
1314274698.40448976,-0.34795505,0.47477031,-0.82432908
1314274698.45648098,-0.34876144,0.47568384,-0.82637596
1314274698.50531602,-0.34906363,0.47440904,-0.82478857
1314274698.55645967,-0.34770772,0.47592968,-0.82684928
1314274698.60407305,-0.34930962,0.47415537,-0.82440192
1314274698.65646029,-0.34817532,0.47745693,-0.82768494
1314274698.70411634,-0.35023236,0.47353116,-0.82405120
1314274698.75600362,-0.34807864,0.47630510,-0.82620865
1314274698.80561280,-0.34880966,0.47466120,-0.82504177
1314274698.85546994,-0.34636107,0.47755355,-0.82678443
1314274698.90448570,-0.35031721,0.47316960,-0.82551563
1314274698.95644712,-0.34657082,0.47782108,-0.82799482
1314274699.00747132,-0.34876764,0.47641617,-0.82412189
1314274699.05658603,-0.34822172,0.47416723,-0.82659972
1314274699.10385132,-0.34920955,0.47466436,-0.82493174
1314274699.15558147,-0.34838644,0.47681880,-0.82676172
1314274699.20465565,-0.34949937,0.47492278,-0.82521605
1314274699.25944543,-0.34909824,0.47481790,-0.82758516
1314274699.30488992,-0.34934619,0.47481644,-0.82720047
1314274699.35650349,-0.34707719,0.47502533,-0.82547724
1314274699.40394974,-0.34871593,0.47388771,-0.82356840
1314274699.45649385,-0.34867632,0.47606978,-0.82717156
1314274699.50756621,-0.34969747,0.47465995,-0.82402903
1314274699.55650473,-0.34758273,0.47630799,-0.82697791
1314274699.60960555,-0.34940863,0.47452766,-0.82374567
1314274699.65545917,-0.34895217,0.47657740,-0.82719105
1314274699.70758438,-0.34848225,0.47361559,-0.82195789
1314274699.75652838,-0.34808931,0.47670934,-0.82860500
1314274699.80858994,-0.34922424,0.47456568,-0.82745755
1314274699.85649323,-0.34746605,0.47565603,-0.82510537
1314274699.90754795,-0.34779918,0.47426122,-0.82405055
1314274699.95557809,-0.34620655,0.47613880,-0.82437229
1314274700.00722051,-0.34940064,0.47452611,-0.82361227
1314274700.05731583,-0.34790978,0.47617128,-0.82566625
1314274700.10845995,-0.34984210,0.47481352,-0.82643121
1314274700.15647340,-0.34881657,0.47554404,-0.82504874
1314274700.20527768,-0.35135713,0.47415596,-0.82239199
1314274700.25861835,-0.34763095,0.47528535,-0.82564372
1314274700.30844402,-0.34810391,0.47540399,-0.82447523
1314274700.35548496,-0.34829575,0.47541624,-0.82541680
1314274700.40842223,-0.34758610,0.47464713,-0.82497180
1314274700.45552039,-0.34757009,0.47565150,-0.82457954
1314274700.50842237,-0.34942326,0.47543639,-0.82614607
1314274700.55644751,-0.34672606,0.47717226,-0.82613778
1314274700.60830951,-0.34832299,0.47476736,-0.82368547
1314274700.65650582,-0.34933949,0.47491664,-0.82480806
1314274700.70468545,-0.34876686,0.47326782,-0.82449722
1314274700.75840378,-0.34738892,0.47604349,-0.82603437
1314274700.80456495,-0.34825978,0.47591308,-0.82475382
1314274700.85557580,-0.34905317,0.47720191,-0.82653683
1314274700.91150403,-0.34833005,0.47363538,-0.82394332
1314274700.95650673,-0.34754983,0.47617576,-0.82644331
1314274701.00447845,-0.34943554,0.47491059,-0.82414883
1314274701.05679703,-0.34669426,0.47515133,-0.82585508
1314274701.10429549,-0.34889984,0.47289103,-0.82450205
1314274701.15548658,-0.34802547,0.47669715,-0.82753783
1314274701.20809984,-0.34885859,0.47378907,-0.82596862
1314274701.25690961,-0.34839377,0.47566241,-0.82475960
1314274701.30488896,-0.34902874,0.47402459,-0.82425195
1314274701.35548234,-0.34727657,0.47707832,-0.82856131
1314274701.40522194,-0.34845209,0.47287869,-0.82381171
1314274701.45744038,-0.34792179,0.47566989,-0.82592911
1314274701.50442576,-0.34901637,0.47555780,-0.82612371
1314274701.55685306,-0.34840542,0.47619277,-0.82715696
1314274701.60548711,-0.35010448,0.47252369,-0.82430226
1314274701.65555167,-0.34747162,0.47744453,-0.82724589
1314274701.70520878,-0.34717330,0.47401184,-0.82494348
1314274701.75669026,-0.34825486,0.47528249,-0.82474881
1314274701.80859160,-0.34989607,0.47356457,-0.82748848
1314274701.85644579,-0.34820175,0.47466713,-0.82620347
1314274701.90442038,-0.34758744,0.47374144,-0.82283819
1314274701.95550013,-0.35034490,0.47670087,-0.82554340
1314274702.00665331,-0.34832498,0.47501960,-0.82368743
1314274702.05545688,-0.34741125,0.47476405,-0.82429796
1314274702.10749364,-0.34960744,0.47441530,-0.82481968
1314274702.15645528,-0.34760660,0.47731999,-0.82725263
1314274702.20748544,-0.34890381,0.47339550,-0.82450604
1314274702.25755072,-0.34783497,0.47577921,-0.82446265
1314274702.30842042,-0.34806466,0.47655427,-0.82594383
1314274702.35573077,-0.34781176,0.47592512,-0.82632351
1314274702.40846586,-0.34975234,0.47454453,-0.82496184
1314274702.45613456,-0.34777495,0.47428104,-0.82591039
1314274702.50500941,-0.34843373,0.47466263,-0.82555205
1314274702.55644011,-0.34800491,0.47503170,-0.82513148
1314274702.60744119,-0.35095099,0.47442788,-0.82463062
1314274702.65654945,-0.34872350,0.47592846,-0.82571095
1314274702.70849156,-0.34873283,0.47502428,-0.82371074
1314274702.75646210,-0.34878531,0.47669584,-0.82665068
1314274702.80480409,-0.34847859,0.47530085,-0.82622403
1314274702.85641098,-0.34833252,0.47706035,-0.82582992
1314274702.90745020,-0.34887683,0.47401997,-0.82397741
1314274702.95643997,-0.34807929,0.47746301,-0.82834417
1314274703.00757766,-0.34865084,0.47377378,-0.82476026
1314274703.05657363,-0.34889746,0.47467801,-0.82650918
1314274703.10756946,-0.34934253,0.47428757,-0.82493651
1314274703.15549970,-0.34941730,0.47467968,-0.82614011
1314274703.20442009,-0.34835365,0.47467175,-0.82647806
1314274703.25561404,-0.34852844,0.47556224,-0.82702637
1314274703.30450392,-0.34884065,0.47353378,-0.82569981
1314274703.35647130,-0.34823048,0.47731712,-0.82635772
1314274703.40859365,-0.34940642,0.47329238,-0.82612914
1314274703.45664716,-0.34670714,0.47679088,-0.82586801
1314274703.50435543,-0.34721717,0.47452396,-0.82561445
1314274703.55699301,-0.34821466,0.47529924,-0.82634187
1314274703.60562634,-0.34854382,0.47339997,-0.82528311
1314274703.65552855,-0.34903735,0.47518402,-0.82652092
1314274703.70478010,-0.34875691,0.47301406,-0.82436186
1314274703.75652385,-0.34874809,0.47709092,-0.82824671
